Flag for Iran Weather past 2 weeks in Esfahãn, Iran

70 °F


Feels Like: 70 °F
Forecast: 48 / 81 °F
Wind: No wind

Location: Esfahan

Current Time: Oct 10, 2015 at 12:14:52 AM

Latest Report: Oct 9, 2015 at 11:30 PM

Visibility: 10 mi

Pressure: 30.04 "Hg (25.01 "Hg at 1576m altitude)

Humidity: 27%

Dew point: 34 °F

Location of EsfahãnLocation

Historic Weather in Esfahãn — Graph


Esfahãn temperature yesterday

Maximum temperature yesterday: 86 °F (at 1:00 PM)
Minimum temperature yesterday: 46 °F (at 6:00 AM)
Average temperature yesterday: 69 °F

Past Weeks' High & Low Weather Summary

High90 °F (Oct 2, 3:00 PM)55% (Oct 2, 5:30 AM)30.42 "Hg (Oct 2, 5:30 AM)
Low43 °F (Sep 28, 6:00 AM)7% (Sep 28, 2:00 PM)29.98 "Hg (Oct 9, 2:30 PM)
Average70 °F22%30.16 "Hg
* Reported Sep 24 10:30 PM — Oct 9 11:00 PM, Esfahãn, Weather by CustomWeather, © 2015

Note: Actual official high and low records may vary slightly from our data, if they occured in-between our weather recording intervals... More about our weather records


Esfahãn weather history for previous 24 hours

Time TempWeatherWind HumidityBarometerVisibility
11:00 PM
Fri, Oct 9
72 °FClear.5 mph25%30.07 "Hg10 mi
10:30 PM72 °FClear.No wind27%30.07 "Hg10 mi
10:00 PM66 °FClear.5 mph30%30.07 "Hg10 mi
9:30 PM64 °FClear.7 mph32%30.07 "Hg10 mi
9:00 PM68 °FClear.14 mph28%30.07 "Hg4 mi
8:30 PM68 °FClear.9 mph26%30.07 "Hg4 mi
8:00 PM70 °FClear.12 mph27%30.07 "Hg4 mi
7:30 PM73 °FClear.14 mph23%30.07 "Hg4 mi
7:00 PM75 °FClear.14 mph22%30.04 "Hg4 mi
6:30 PM77 °FPassing clouds.14 mph19%30.04 "Hg4 mi
6:00 PM79 °FHaze.14 mph17%30.04 "Hg2 mi
5:30 PM79 °FSandstorm.21 mph17%30.04 "Hg2 mi
5:00 PM81 °FSandstorm.21 mph16%30.01 "Hg2 mi
4:30 PM82 °FSandstorm.26 mph15%30.01 "Hg2 mi
4:00 PM84 °FSandstorm.22 mph13%30.01 "Hg2 mi
3:30 PM86 °FSandstorm.26 mph12%30.01 "Hg2 mi
3:00 PM86 °FSandstorm.22 mph12%29.98 "Hg2 mi
2:30 PM84 °FSandstorm.33 mph13%29.98 "Hg2 mi
2:00 PM86 °FSandstorm.22 mph13%30.01 "Hg3 mi
1:30 PM84 °FScattered clouds.24 mph15%30.01 "Hg4 mi
1:00 PM86 °FPassing clouds.21 mph13%30.01 "Hg4 mi
12:30 PM84 °FPassing clouds.12 mph16%30.04 "Hg5 mi
12:00 PM84 °FPassing clouds.12 mph15%30.04 "Hg5 mi
11:30 AM81 °FPassing clouds.9 mph17%30.07 "Hg5 mi
11:00 AM81 °FClear.7 mph17%30.07 "Hg5 mi
10:30 AM77 °FClear.9 mph22%30.09 "Hg4 mi
10:00 AM75 °FHaze.7 mph24%30.09 "Hg2 mi
9:30 AM68 °FHaze.5 mph30%30.12 "Hg3 mi
9:00 AM68 °FHaze.5 mph30%30.12 "Hg3 mi
8:30 AM64 °FClear.5 mph34%30.12 "Hg4 mi
8:00 AM61 °FClear.No wind36%30.12 "Hg4 mi
7:30 AM55 °FHaze.5 mph44%30.12 "Hg3 mi
7:00 AM52 °FHaze.5 mph47%30.12 "Hg2 mi
6:30 AM48 °FClear.No wind46%30.12 "Hg4 mi
6:00 AM46 °FClear.5 mph50%30.12 "Hg5 mi
5:30 AM48 °FClear.5 mph43%30.12 "Hg5 mi
5:00 AM50 °FClear.No wind50%30.12 "Hg10 mi
4:30 AM50 °FClear.5 mph43%30.09 "Hg10 mi
4:00 AM52 °FClear.7 mph44%30.09 "Hg10 mi
3:30 AM54 °FClear.No wind41%30.09 "Hg10 mi
2:30 AM55 °FClear.5 mph41%30.09 "Hg10 mi
2:00 AM54 °FClear.No wind38%30.12 "Hg10 mi
1:30 AM55 °FClear.No wind38%30.12 "Hg10 mi
1:00 AM59 °FClear.No wind39%30.12 "Hg10 mi
12:30 AM57 °FClear.9 mph41%30.12 "Hg10 mi
12:00 AM61 °FClear.5 mph39%30.12 "Hg10 mi
Weather by CustomWeather, © 2015

See weather overviewHow to use our weather pages